Location: �perlecques
(50.8057°N, 2.1521°E)
Time: 13:23:10
(UTC+00:00)

Vanguard 1 Rocket - Pass Details

Date: 07 August 2021
Orbit: 650 x 4226 km, 34.3° (Epoch: 23 September)

Event Time Altitude Azimuth Distance (km) Brightness Sun altitude
Rises 11:46:02 0° 262° (W) 7,813 12.2 55.4°
Reaches altitude 10° 11:52:36 10° 256° (WSW) 6,290 11.9 55.5°
Maximum altitude 12:07:30 35° 201° (SSW) 3,153 11.6 55.4°
Drops below altitude 10° 12:16:06 10° 139° (SE) 3,625 11.0 55.3°
Sets 12:18:46 0° 130° (SE) 4,254 11.1 55.2°
